Date,TemperatureHighF,TemperatureAvgF,TemperatureLowF,DewpointHighF,DewpointAvgF,DewpointLowF,HumidityHigh,HumidityAvg,HumidityLow,PressureMaxIn,PressureMinIn,WindSpeedMaxMPH,WindSpeedAvgMPH,GustSpeedMaxMPH,PrecipitationSumIn
2013-1-1,26.4,22.0,16.0,22.6,18.5,13.6,93,86,74,30.55,30.36,19,6,22,0.00
2013-1-2,33.6,23.4,14.4,26.8,19.4,12.2,92,85,68,30.56,30.42,19,4,21,0.00
2013-1-3,34.5,26.5,19.9,25.0,20.5,16.3,92,78,59,30.72,30.55,17,4,18,0.00
2013-1-4,44.1,30.6,18.9,27.9,23.0,16.2,92,75,52,30.67,30.47,22,5,23,0.01
2013-1-5,47.1,37.6,31.1,32.2,28.0,20.8,84,69,49,30.50,30.30,24,9,24,0.00
2013-1-6,49.6,36.1,25.9,25.0,22.5,19.8,79,60,34,30.64,30.47,15,4,15,0.00
2013-1-7,51.6,39.1,28.8,27.3,24.1,20.5,71,56,37,30.48,30.22,29,8,29,0.00
2013-1-8,55.8,41.9,32.2,34.7,30.8,25.0,85,66,42,30.41,30.15,23,7,23,0.00
2013-1-9,52.9,41.8,29.3,35.2,30.6,25.3,86,66,45,30.62,30.41,27,7,29,0.00
2013-1-10,49.3,44.6,41.2,46.6,42.5,30.9,98,93,51,30.43,29.91,27,8,28,0.30
2013-1-11,59.5,50.6,41.0,49.1,43.1,17.1,98,78,25,30.01,29.71,33,10,33,0.00
2013-1-12,40.8,27.5,20.8,33.3,17.2,9.0,79,65,58,30.35,30.01,29,13,29,0.00
2013-1-13,27.1,19.8,12.4,10.8,7.5,3.4,75,59,40,30.63,30.33,25,8,29,0.00
2013-1-14,30.9,22.7,14.9,11.8,9.7,7.7,80,58,41,30.76,30.59,17,4,18,0.00
2013-1-15,34.2,25.7,17.4,15.6,11.6,7.9,77,56,38,30.62,30.44,12,3,12,0.00
2013-1-16,51.4,33.4,19.8,31.5,22.0,12.2,76,63,46,30.47,30.30,13,4,13,0.00
2013-1-17,55.8,40.7,30.0,32.5,29.0,25.5,83,65,38,30.72,30.47,15,5,15,0.00
2013-1-18,58.1,43.6,31.8,33.4,30.4,26.4,82,62,37,30.62,30.25,32,10,33,0.00
2013-1-19,62.6,47.1,33.1,33.3,28.6,24.3,83,52,24,30.42,30.22,19,5,19,0.00
2013-1-20,50.7,37.7,25.3,29.1,22.6,7.5,77,55,38,30.59,30.36,32,10,33,0.00
2013-1-21,36.3,26.6,17.8,15.3,12.0,5.5,73,55,39,30.67,30.51,23,4,23,0.00
2013-1-22,45.7,30.0,17.8,22.5,16.2,9.3,71,58,38,30.55,30.41,18,5,18,0.00
2013-1-23,56.8,37.3,23.2,33.1,23.8,17.4,80,60,39,30.55,30.34,28,5,30,0.00
2013-1-24,30.7,24.2,19.6,22.3,15.1,9.1,93,69,48,30.59,30.34,30,10,31,0.00
2013-1-25,50.4,36.1,25.0,26.6,23.7,20.8,89,64,37,30.51,30.38,9,2,9,0.00
2013-1-26,56.3,44.8,34.9,38.7,30.8,24.1,81,59,38,30.46,30.19,23,7,23,0.00
2013-1-27,67.3,52.8,42.6,55.8,48.6,37.8,98,86,64,30.20,29.88,30,10,31,0.00
2013-1-28,72.3,61.2,51.3,60.6,54.0,47.5,97,79,44,29.98,29.75,34,10,34,0.01
2013-1-29,64.9,43.2,33.6,60.4,39.1,30.9,94,86,73,29.83,29.66,24,10,25,0.02
2013-1-30,34.0,28.5,23.2,31.3,22.1,17.6,91,77,58,30.23,29.81,41,12,41,0.00
2013-1-31,29.7,24.0,18.0,22.5,14.8,6.1,81,68,51,30.71,30.20,30,8,31,0.00
2013-2-1,36.3,24.3,14.2,14.4,9.2,5.5,76,54,35,30.69,30.41,20,5,20,0.00
2013-2-2,55.2,41.3,28.2,34.2,25.5,13.1,83,55,35,30.51,30.40,27,6,27,0.00
2013-2-3,55.9,45.8,32.7,30.2,25.1,20.3,70,46,27,30.48,30.03,23,7,24,0.00
2013-2-4,54.1,45.7,35.2,31.6,29.8,27.1,72,55,39,30.15,29.98,21,7,21,0.00
2013-2-5,63.5,47.2,30.0,31.8,26.9,24.1,85,51,23,30.23,30.10,19,5,19,0.00
2013-2-6,57.4,50.7,40.8,54.3,42.6,29.5,96,75,52,30.22,29.99,24,8,24,0.00
2013-2-7,55.4,48.5,37.8,50.5,41.2,29.8,97,78,50,30.38,29.98,29,9,29,0.17
2013-2-8,45.0,34.9,26.4,33.8,29.7,24.6,96,82,62,30.55,30.35,19,6,19,0.00
2013-2-9,48.7,40.2,35.1,41.7,35.8,31.3,97,84,69,30.35,29.81,30,12,31,0.01
2013-2-10,49.5,43.1,36.0,45.3,31.5,23.7,98,66,43,30.25,29.68,45,15,48,0.03
2013-2-11,45.5,36.8,28.9,24.6,20.8,17.4,74,54,34,30.44,30.25,18,6,18,0.00
2013-2-12,40.8,35.7,31.5,32.0,24.3,20.8,94,64,47,30.38,30.20,14,4,14,0.00
2013-2-13,57.0,39.9,26.4,30.0,24.5,16.2,94,60,21,30.22,30.08,29,6,29,0.00
2013-2-14,49.1,41.0,34.0,32.5,27.5,17.8,72,59,43,30.48,30.12,28,7,28,0.00
2013-2-15,39.9,30.9,20.8,20.1,16.4,11.3,81,57,35,30.65,30.49,26,8,27,0.00
2013-2-16,47.5,32.8,18.1,28.9,19.0,10.9,75,58,39,30.61,30.22,28,6,30,0.00
2013-2-17,68.4,48.4,30.2,34.2,29.0,25.0,88,53,20,30.22,29.74,28,7,29,0.00
2013-2-18,55.0,46.4,33.4,41.2,28.4,19.4,72,50,37,30.32,29.62,45,14,46,0.00
2013-2-19,43.9,34.2,25.9,20.7,16.4,8.2,72,50,34,30.56,30.32,19,6,20,0.00
2013-2-20,32.2,28.1,23.5,27.9,18.3,4.6,93,71,34,30.48,30.23,31,14,31,0.00
2013-2-21,28.0,23.5,16.3,26.6,21.5,13.6,94,92,86,30.23,29.92,31,11,31,0.00
2013-2-22,25.9,18.3,10.9,16.9,13.0,7.7,89,80,66,30.40,30.15,19,5,21,0.00
2013-2-23,34.0,22.5,9.7,25.0,17.4,7.3,92,81,66,30.37,30.16,14,3,15,0.01
2013-2-24,46.6,36.6,26.4,35.1,28.2,21.0,80,72,62,30.17,29.97,27,10,27,0.01
2013-2-25,38.1,33.2,31.1,32.4,30.4,27.7,97,89,79,30.08,29.86,44,14,44,0.02
2013-2-26,34.2,30.4,26.4,30.6,27.4,25.0,97,89,74,30.15,29.92,26,8,26,0.01
2013-2-27,37.6,31.6,26.2,27.7,25.8,23.0,94,80,62,30.41,30.14,31,10,32,0.01
2013-2-28,34.5,31.5,26.8,27.5,25.6,22.3,84,79,74,30.47,30.39,25,9,27,0.00
2013-3-1,32.7,29.8,23.0,26.4,23.3,18.1,85,76,64,30.59,30.45,24,8,24,0.00
2013-3-2,39.6,29.4,18.5,25.7,20.4,15.3,88,70,43,30.62,30.38,10,3,12,0.00
2013-3-3,57.9,43.6,30.4,39.4,31.6,24.4,80,64,46,30.38,29.80,20,7,20,0.00
2013-3-4,48.9,43.2,37.2,38.3,35.0,32.0,90,73,57,30.26,29.73,35,11,38,0.03
2013-3-5,40.8,34.9,28.6,34.3,20.8,15.6,90,57,43,30.61,30.26,36,12,36,0.00
2013-3-6,45.3,34.9,25.0,24.1,20.7,16.9,75,57,35,30.66,30.40,20,5,20,0.00
2013-3-7,66.0,49.8,34.5,30.7,26.5,22.8,67,43,24,30.40,30.17,28,12,29,0.00
2013-3-8,59.7,52.4,45.9,47.3,39.4,29.8,77,62,44,30.25,30.04,31,12,31,0.00
2013-3-9,58.6,54.4,41.5,56.1,50.8,39.0,97,88,72,30.05,29.69,31,9,32,0.90
2013-3-10,41.7,32.4,28.2,40.1,27.8,21.2,94,83,74,30.26,29.73,38,15,39,0.00
2013-3-11,47.7,34.5,23.4,24.6,18.9,11.8,80,56,27,30.27,30.18,23,7,24,0.00
2013-3-12,52.0,44.1,38.1,36.5,26.7,20.3,79,52,34,30.56,30.23,33,7,33,0.00
2013-3-13,55.2,42.2,29.8,30.9,24.2,17.8,70,50,33,30.66,30.45,22,6,22,0.00
2013-3-14,77.2,55.8,37.4,46.8,36.4,26.4,74,51,22,30.45,30.23,21,6,22,0.00
2013-3-15,77.7,62.6,46.6,51.3,45.9,40.3,82,57,33,30.24,29.82,22,5,22,0.00
2013-3-16,60.6,47.5,37.6,48.7,37.8,29.1,78,69,58,30.15,29.83,36,16,37,0.00
2013-3-17,41.2,37.4,34.5,35.8,31.9,27.7,93,80,72,30.17,29.88,34,11,36,0.01
2013-3-18,56.1,45.5,36.9,36.7,28.2,17.2,94,58,23,30.22,29.94,26,8,26,0.00
2013-3-19,54.1,43.2,33.4,32.5,22.0,15.4,79,44,28,30.48,30.21,26,10,30,0.00
2013-3-20,48.0,38.8,31.5,32.0,20.2,10.6,90,52,28,30.62,30.22,23,7,23,0.00
2013-3-21,46.0,38.7,33.6,30.0,21.2,15.1,85,51,33,30.22,29.91,38,18,39,0.00
2013-3-22,47.7,37.3,30.6,34.2,31.0,28.8,93,79,57,30.17,30.03,22,9,23,0.00
2013-3-23,36.9,33.1,30.4,32.7,31.6,29.7,98,94,79,30.16,30.02,35,12,35,0.09
2013-3-24,33.4,28.7,23.5,29.7,22.1,16.9,97,77,54,30.39,30.12,39,15,39,0.00
2013-3-25,33.3,28.6,23.5,21.9,17.8,14.9,76,64,48,30.62,30.39,31,11,33,0.00
2013-3-26,47.5,34.1,20.3,25.3,20.5,16.2,85,59,39,30.68,30.42,19,4,19,0.00
2013-3-27,63.0,48.7,37.8,35.2,28.3,20.8,55,46,34,30.43,30.24,28,9,28,0.00
2013-3-28,67.8,52.8,37.0,48.0,38.8,30.9,80,60,46,30.34,30.21,18,5,22,0.00
2013-3-29,71.2,60.9,49.1,55.0,50.5,44.8,87,70,51,30.29,30.15,24,7,25,0.00
2013-3-30,72.3,60.9,51.3,58.5,54.3,49.8,98,81,54,30.16,29.99,23,6,23,0.62
2013-3-31,64.8,56.2,45.9,52.3,42.6,33.6,94,64,33,30.20,30.07,33,6,35,0.02
2013-4-1,52.3,41.3,36.1,39.9,31.8,24.3,87,69,53,30.46,30.11,33,11,33,0.17
2013-4-2,41.4,37.7,33.4,29.3,26.7,23.5,80,65,50,30.51,30.40,25,9,25,0.05
2013-4-3,41.4,38.8,36.9,34.3,29.3,23.2,86,69,49,30.53,30.44,24,8,25,0.00
2013-4-4,56.8,46.3,37.9,42.4,37.3,33.4,89,72,54,30.45,30.29,13,4,13,0.00
2013-4-5,64.0,52.0,38.8,45.7,41.3,36.1,90,69,49,30.34,29.99,28,8,28,0.00
2013-4-6,74.1,63.0,54.0,50.0,44.8,40.1,75,55,30,30.00,29.86,31,9,31,0.00
2013-4-7,69.6,59.9,54.1,59.4,51.9,42.6,93,75,51,29.99,29.77,24,6,24,0.03
2013-4-8,71.8,65.0,59.0,61.5,59.5,56.8,94,83,66,29.82,29.69,32,10,32,0.03
2013-4-9,74.1,58.4,31.6,63.0,52.7,29.8,96,82,54,30.12,29.65,37,12,38,0.28
2013-4-10,32.2,30.5,29.1,31.5,28.7,27.5,97,93,88,30.22,29.96,39,5,39,0.11
2013-4-11,52.3,37.3,27.7,34.9,28.8,24.8,93,74,39,30.18,29.94,20,6,25,0.04
2013-4-12,56.7,43.5,30.9,37.2,31.2,26.1,83,63,44,30.23,30.06,18,5,18,0.00
2013-4-13,72.0,56.7,42.1,51.1,41.3,33.1,71,57,42,30.24,29.75,36,9,36,0.00
2013-4-14,71.4,63.3,56.8,55.4,44.5,25.7,72,53,23,29.86,29.60,32,12,32,0.00
2013-4-15,56.8,52.5,46.8,36.0,29.9,23.9,52,42,29,30.11,29.84,33,14,34,0.00
2013-4-16,47.1,44.3,42.3,40.6,34.4,27.5,93,69,48,30.24,30.07,36,17,36,0.00
2013-4-17,45.9,43.4,40.8,45.1,42.3,39.2,97,96,92,30.17,29.86,28,10,30,0.17
2013-4-18,41.0,36.7,33.1,39.4,30.2,24.4,97,78,61,30.29,29.87,38,15,38,0.06
2013-4-19,61.5,45.2,30.9,32.7,27.1,20.5,76,52,27,30.33,30.20,35,11,35,0.00
2013-4-20,61.3,52.2,40.1,39.6,33.3,28.8,65,49,36,30.29,30.14,28,12,29,0.00
2013-4-21,67.8,59.8,52.7,44.8,40.7,36.1,62,50,38,30.31,30.19,31,9,31,0.00
2013-4-22,70.3,56.8,37.2,55.6,45.7,36.1,97,68,55,30.24,29.94,36,10,38,0.27
2013-4-23,37.0,32.9,30.9,36.1,30.0,25.5,98,89,70,30.51,30.12,40,15,43,0.51
2013-4-24,57.2,42.5,28.2,35.2,29.4,25.7,92,64,31,30.54,30.40,20,5,20,0.00
2013-4-25,67.5,53.5,37.0,44.1,36.1,31.6,82,55,29,30.50,30.18,31,6,31,0.00
2013-4-26,59.2,52.5,49.5,49.3,45.9,34.2,96,80,39,30.31,30.20,34,9,34,0.19
2013-4-27,67.6,54.0,48.4,52.9,49.5,46.9,96,86,58,30.32,30.16,18,6,18,0.01
2013-4-28,81.3,62.6,46.2,58.3,52.1,45.1,97,73,34,30.17,29.90,25,7,25,0.00
2013-4-29,86.2,71.3,56.8,60.8,56.1,51.1,92,62,36,29.91,29.70,28,8,28,0.00
2013-4-30,83.7,73.4,62.2,60.4,56.1,51.4,79,56,38,29.86,29.75,34,12,34,0.00
2013-5-1,73.0,58.9,39.0,62.2,50.6,34.3,86,74,53,30.41,29.85,41,13,41,0.00
2013-5-2,49.1,40.0,34.0,36.7,31.9,21.7,98,76,35,30.66,30.38,43,17,43,0.66
2013-5-3,56.5,46.3,36.5,32.5,28.9,24.1,79,54,31,30.59,30.19,29,10,32,0.00
2013-5-4,47.7,43.5,40.8,39.9,34.5,27.9,88,71,53,30.30,30.10,31,13,31,0.01
2013-5-5,59.7,50.0,42.1,50.0,44.8,39.4,95,83,68,30.37,30.25,19,7,19,0.00
2013-5-6,70.5,55.2,44.1,51.8,48.1,43.0,97,79,50,30.33,30.18,16,4,16,0.00
2013-5-7,72.3,62.2,52.2,56.7,51.5,48.7,88,70,47,30.23,30.04,22,6,22,0.00
2013-5-8,79.0,66.4,56.8,63.3,56.6,48.4,97,72,52,30.16,29.88,45,10,45,0.60
2013-5-9,72.9,64.7,56.7,58.6,55.8,52.7,93,74,55,30.12,29.91,32,6,34,0.13
2013-5-10,69.3,61.3,54.0,55.9,51.8,47.5,93,73,48,30.24,30.11,25,8,25,0.00
2013-5-11,66.9,60.4,53.8,51.4,41.8,29.8,86,55,27,30.42,30.23,34,8,34,0.00
2013-5-12,69.6,58.3,46.9,45.5,38.7,28.4,69,49,33,30.44,30.22,23,6,23,0.00
2013-5-13,84.9,68.6,52.2,59.5,49.9,42.8,72,53,31,30.25,30.06,18,5,18,0.00
2013-5-14,89.1,75.7,61.5,57.6,51.4,46.0,63,45,24,30.06,29.91,32,10,32,0.00
2013-5-15,80.2,70.8,63.3,65.5,59.7,54.5,90,68,51,29.99,29.89,23,8,24,0.00
2013-5-16,76.6,68.8,61.9,64.2,60.8,57.7,93,77,54,29.99,29.89,20,7,20,0.00
2013-5-17,80.4,70.9,60.6,65.5,62.0,59.2,97,75,55,30.03,29.93,24,6,26,0.00
2013-5-18,83.8,75.8,69.6,73.4,68.9,56.5,93,80,49,29.97,29.70,30,10,32,0.00
2013-5-19,82.2,69.5,61.3,70.0,62.9,57.9,97,80,58,29.87,29.54,30,8,31,1.34
2013-5-20,81.0,70.1,58.8,59.5,55.7,49.6,88,62,36,29.91,29.74,20,5,20,0.00
2013-5-21,72.3,64.9,55.9,51.8,48.7,45.3,74,57,40,29.98,29.85,22,5,22,0.00
2013-5-22,77.4,64.8,53.4,54.3,50.4,46.9,80,61,41,30.07,29.92,20,6,21,0.00
2013-5-23,72.3,64.2,56.5,56.1,52.9,48.7,79,67,55,30.30,30.07,27,10,28,0.00
2013-5-24,76.8,67.5,57.6,66.6,59.8,53.1,86,77,68,30.34,30.17,31,12,31,0.00
2013-5-25,82.6,73.8,66.4,68.0,65.0,62.2,91,75,57,30.22,30.04,31,9,34,0.00
2013-5-26,82.2,73.6,66.6,70.2,66.9,63.0,91,80,65,30.11,29.94,28,10,31,0.00
2013-5-27,81.0,75.3,71.4,70.5,68.6,67.1,90,80,69,29.94,29.69,33,13,35,0.00
2013-5-28,83.1,76.3,72.0,72.5,68.9,66.6,87,78,65,29.84,29.68,37,10,37,0.00
2013-5-29,81.0,73.0,62.4,68.7,65.9,59.2,91,79,64,29.82,29.63,41,13,41,0.23
2013-5-30,80.8,68.2,57.6,66.9,60.1,56.5,98,78,51,29.87,29.60,38,9,39,1.95
2013-5-31,81.9,74.4,68.7,69.4,64.9,54.3,95,74,41,29.86,29.72,24,6,24,0.00
2013-6-1,71.6,66.4,59.4,62.8,52.9,48.0,79,62,52,30.18,29.82,27,10,30,0.00
2013-6-2,70.9,61.5,51.6,50.9,47.3,42.8,83,61,39,30.28,30.14,24,8,24,0.00
2013-6-3,81.0,67.3,54.5,63.3,55.0,49.8,88,67,39,30.16,29.90,31,10,31,0.00
2013-6-4,84.6,74.7,67.8,69.1,64.3,60.4,84,71,54,30.03,29.82,43,9,43,0.00
2013-6-5,73.2,68.8,62.6,66.9,62.5,55.4,94,81,69,30.12,29.92,37,9,37,0.25
2013-6-6,74.5,66.7,57.6,55.9,52.6,47.7,87,63,40,30.15,30.08,23,7,24,0.00
2013-6-7,80.1,69.5,57.4,57.4,54.2,50.9,85,60,41,30.15,30.00,24,4,24,0.00
2013-6-8,82.6,71.7,63.0,63.7,57.9,55.4,88,64,41,30.01,29.80,35,9,36,0.13
2013-6-9,87.6,74.3,61.5,63.1,57.5,49.1,93,60,32,30.02,29.91,24,5,24,0.00
2013-6-10,98.8,82.9,68.9,68.5,64.0,58.1,79,55,33,29.97,29.83,22,6,22,0.00
2013-6-11,98.1,85.3,73.0,68.7,60.6,50.4,70,47,21,29.95,29.81,36,11,36,0.00
2013-6-12,99.9,86.6,74.7,71.6,67.3,62.8,80,56,32,30.01,29.85,29,9,29,0.00
2013-6-13,87.4,77.4,65.8,68.0,61.3,54.1,70,58,49,30.17,30.01,29,11,29,0.00
2013-6-14,99.0,85.1,72.1,72.1,66.1,54.1,82,57,23,30.06,29.89,29,8,29,0.00
2013-6-15,89.8,80.7,73.9,69.8,66.2,63.5,87,62,43,30.04,29.92,33,7,33,0.00
2013-6-16,90.3,78.9,70.9,71.1,65.8,61.0,93,66,42,30.08,29.93,25,7,25,0.00
2013-6-17,81.7,73.9,64.8,67.8,65.5,61.7,97,77,54,30.12,29.87,35,8,35,0.55
2013-6-18,88.5,78.2,68.0,68.2,62.7,51.3,90,63,31,30.14,30.02,27,5,27,0.00
2013-6-19,85.5,76.9,68.0,68.9,65.2,59.7,89,68,48,30.12,29.98,27,8,27,0.13
2013-6-20,94.3,83.0,72.1,72.1,69.5,67.1,87,66,44,30.04,29.90,31,11,33,0.00
2013-6-21,95.2,85.6,77.4,72.0,68.6,65.3,71,58,38,30.00,29.90,32,11,32,0.00
2013-6-22,93.6,84.2,75.4,69.1,65.9,60.4,77,56,38,30.00,29.87,33,12,34,0.00
2013-6-23,94.3,84.2,76.5,68.5,66.3,61.7,72,56,35,29.95,29.85,32,11,32,0.00
2013-6-24,92.8,83.7,76.5,69.6,67.0,64.2,72,58,42,30.00,29.84,36,11,37,0.01
2013-6-25,95.0,84.6,77.2,72.3,69.4,66.6,79,61,44,29.99,29.75,36,13,36,0.12
2013-6-26,100.6,88.0,75.6,74.5,69.6,63.3,80,57,31,29.96,29.83,19,5,19,0.00
2013-6-27,100.4,85.8,66.4,74.8,71.8,46.2,96,66,21,30.08,29.83,65,7,68,0.52
2013-6-28,93.6,82.0,70.7,71.2,64.7,56.7,90,60,32,30.13,29.99,24,7,24,0.00
2013-6-29,88.9,79.7,69.6,61.3,55.5,48.4,69,46,29,30.08,29.94,32,8,32,0.00
2013-6-30,81.3,73.2,62.2,59.2,53.7,47.3,81,53,33,30.16,30.03,31,9,31,0.00
2013-7-1,81.5,72.0,60.3,56.5,50.9,44.6,81,51,30,30.27,30.16,24,8,25,0.00
2013-7-2,84.4,73.7,62.1,56.1,48.7,37.0,66,44,19,30.26,30.15,27,7,27,0.00
2013-7-3,84.6,73.8,64.0,53.2,49.9,44.8,63,45,26,30.23,30.06,18,3,20,0.00
2013-7-4,89.4,76.6,63.3,58.5,53.7,50.2,70,47,27,30.12,29.99,21,7,23,0.00
2013-7-5,90.7,79.8,68.0,61.9,58.0,52.7,74,50,29,30.05,29.92,30,9,30,0.00
2013-7-6,82.2,77.1,71.8,69.3,64.5,60.4,78,66,54,30.02,29.91,25,9,30,0.05
2013-7-7,98.1,85.7,74.8,65.7,63.1,59.2,69,49,28,30.05,29.95,26,9,26,0.04
2013-7-8,99.5,87.4,77.4,68.5,65.0,58.3,65,49,27,30.11,29.99,22,8,24,0.00
2013-7-9,105.3,90.8,78.1,69.6,66.2,59.5,73,48,23,30.07,29.90,26,8,26,0.00
2013-7-10,99.0,88.5,77.5,72.5,65.8,61.9,68,49,31,30.06,29.97,29,7,29,0.02
2013-7-11,92.1,83.1,72.5,70.7,66.4,62.1,79,58,42,30.14,29.98,30,12,30,0.01
2013-7-12,99.0,87.1,74.8,70.7,66.2,62.6,67,51,34,30.05,29.94,25,8,28,0.00
2013-7-13,97.2,87.9,76.3,70.5,68.7,66.0,77,55,38,30.04,29.93,26,8,28,0.00
2013-7-14,85.6,74.0,68.5,72.3,68.1,63.5,98,83,55,30.17,29.98,29,5,29,0.65
2013-7-15,80.1,71.9,66.9,69.1,64.3,60.6,88,77,64,30.29,30.17,29,6,32,0.16
2013-7-16,89.1,77.6,67.3,70.3,65.4,62.8,88,68,43,30.38,30.28,34,6,35,0.00
2013-7-17,91.2,80.6,71.4,71.4,68.3,64.8,87,68,44,30.41,30.27,17,4,17,0.00
2013-7-18,92.1,82.3,72.1,71.4,67.9,63.5,88,64,41,30.30,30.08,24,5,24,0.00
2013-7-19,94.8,84.5,72.9,69.3,66.4,63.1,83,57,36,30.12,29.94,22,6,23,0.00
2013-7-20,97.0,81.4,71.6,70.9,67.3,60.3,96,66,32,30.00,29.87,31,7,34,0.64
2013-7-21,88.3,77.8,69.3,73.9,70.4,66.7,96,79,59,29.99,29.88,21,8,22,0.54
2013-7-22,86.7,78.9,74.3,74.8,70.6,60.3,89,76,51,30.00,29.85,25,6,25,0.23
2013-7-23,92.1,82.2,66.0,73.2,67.9,59.5,97,64,48,30.04,29.83,50,9,55,0.83
2013-7-24,88.5,78.2,69.3,70.7,66.2,56.5,96,70,36,30.14,29.96,24,7,24,0.02
2013-7-25,86.9,78.8,71.4,72.9,68.3,62.1,87,71,55,30.16,30.07,21,5,26,0.00
2013-7-26,85.3,75.3,66.0,71.1,66.2,59.7,98,76,44,30.18,30.06,29,8,29,2.36
2013-7-27,78.6,70.8,63.7,63.7,57.3,52.9,85,63,53,30.23,30.07,23,10,23,0.10
2013-7-28,64.8,62.5,60.3,63.3,61.0,57.6,98,95,84,30.18,30.09,25,8,25,1.65
2013-7-29,84.6,74.2,64.0,75.0,68.7,60.4,91,83,66,30.14,29.93,30,9,30,0.01
2013-7-30,81.0,75.1,70.9,72.7,70.9,69.4,97,87,74,30.19,30.03,16,5,21,0.01
2013-7-31,86.4,77.2,68.0,70.5,68.3,64.8,97,76,52,30.26,30.14,19,4,19,0.00
2013-8-1,88.2,79.8,70.5,70.2,67.7,64.9,91,68,47,30.22,30.01,20,5,21,0.00
2013-8-2,91.8,80.9,69.8,78.3,73.4,65.8,97,79,62,30.03,29.88,25,8,25,1.30
2013-8-3,85.5,79.2,73.2,78.3,72.3,67.5,95,80,66,30.13,29.96,27,10,27,0.51
2013-8-4,77.4,73.6,70.2,73.6,71.8,68.5,98,94,86,30.20,30.08,61,8,61,3.60
2013-8-5,91.2,81.0,70.2,77.2,73.0,67.6,95,78,56,30.09,29.86,36,8,42,0.10
2013-8-6,92.3,82.2,70.3,78.6,71.7,66.6,94,72,51,29.99,29.83,46,5,46,0.02
2013-8-7,88.2,79.8,71.8,73.2,70.4,66.9,91,74,54,30.01,29.84,42,7,49,0.06
2013-8-8,81.3,74.2,67.6,72.1,69.0,66.4,98,85,67,30.07,29.90,31,8,31,1.87
2013-8-9,73.9,69.3,63.3,69.4,64.6,59.0,98,85,67,30.26,30.04,29,10,32,0.43
2013-8-10,84.0,74.0,64.0,67.3,64.1,62.1,95,73,50,30.32,30.17,19,5,19,0.00
2013-8-11,85.8,78.1,68.7,71.6,68.5,65.5,90,73,57,30.24,30.09,13,3,15,0.00
2013-8-12,85.3,77.6,68.4,72.9,70.4,66.2,95,79,63,30.16,30.04,27,5,27,0.45
2013-8-13,82.6,72.1,65.7,72.5,68.2,64.0,98,88,62,30.23,30.08,33,6,33,1.43
2013-8-14,81.0,72.1,63.9,66.4,61.9,57.0,94,72,46,30.30,30.16,19,6,19,0.01
2013-8-15,83.7,71.3,61.5,69.6,63.6,58.1,98,78,62,30.22,30.05,36,5,37,0.71
2013-8-16,79.9,69.8,61.7,65.8,63.4,61.0,98,82,59,30.26,30.15,16,5,17,0.01
2013-8-17,78.6,71.4,63.3,62.6,60.6,58.1,87,70,54,30.29,30.17,21,7,22,0.00
2013-8-18,82.8,73.3,64.0,64.8,61.0,57.2,81,66,49,30.27,30.14,18,5,18,0.00
2013-8-19,87.3,77.3,68.2,68.4,65.4,62.6,83,68,50,30.20,30.06,18,6,18,0.00
2013-8-20,91.0,79.3,68.2,68.4,65.9,63.7,87,66,44,30.15,30.05,21,6,21,0.00
2013-8-21,93.6,80.8,70.3,67.6,65.0,61.7,81,61,36,30.15,30.07,18,6,20,0.00
2013-8-22,91.4,80.9,69.6,70.0,67.0,61.7,87,64,39,30.17,30.06,17,5,17,0.00
2013-8-23,92.7,82.6,74.1,73.4,70.1,67.6,83,67,48,30.13,30.02,23,8,23,0.00
2013-8-24,92.1,82.8,73.2,72.1,70.8,68.2,87,69,47,30.18,30.09,24,7,24,0.00
2013-8-25,94.5,83.3,73.6,72.0,70.0,66.0,86,66,43,30.25,30.16,22,7,22,0.00
2013-8-26,93.9,83.6,73.9,71.1,68.6,65.8,85,63,41,30.25,30.13,22,6,22,0.00
2013-8-27,93.4,82.1,71.4,68.9,65.5,56.1,86,60,31,30.17,30.06,24,5,24,0.00
2013-8-28,91.9,81.5,70.3,72.7,69.7,67.3,91,69,48,30.13,30.05,16,4,17,0.00
2013-8-29,99.3,86.2,74.7,71.8,66.8,59.4,82,56,29,30.11,30.01,18,5,19,0.00
2013-8-30,104.2,87.4,73.6,70.5,65.4,54.1,82,53,20,30.04,29.90,15,3,15,0.00
2013-8-31,103.8,87.8,74.1,70.7,67.1,59.7,78,53,25,29.95,29.81,18,4,18,0.00
2013-9-1,88.9,81.5,76.3,72.5,67.8,60.6,73,63,55,30.08,29.84,23,6,23,0.00
2013-9-2,85.3,75.4,62.4,62.1,59.1,53.2,87,60,37,30.19,30.07,16,4,16,0.00
2013-9-3,89.1,76.7,65.5,62.1,59.3,53.1,80,57,31,30.21,30.09,16,4,16,0.00
2013-9-4,90.0,78.4,65.8,62.2,58.4,50.7,80,53,27,30.25,30.14,18,4,18,0.00
2013-9-5,92.1,81.2,69.8,66.0,62.8,59.0,76,55,35,30.26,30.14,18,6,19,0.00
2013-9-6,94.8,83.3,71.6,66.9,64.7,62.6,77,55,36,30.19,30.03,21,6,22,0.00
2013-9-7,100.2,85.6,72.1,66.7,65.0,60.3,79,54,28,30.08,29.96,18,5,19,0.00
2013-9-8,99.7,86.2,73.6,66.9,63.4,57.7,74,50,27,30.01,29.89,21,4,21,0.00
2013-9-9,94.8,83.8,72.0,65.1,60.0,50.7,68,47,23,30.02,29.94,29,7,31,0.00
2013-9-10,93.6,82.8,72.7,65.8,61.0,55.0,69,49,31,30.16,30.01,26,7,27,0.00
2013-9-11,93.6,82.3,72.3,66.2,62.2,58.6,67,52,33,30.22,30.09,17,4,17,0.00
2013-9-12,81.1,74.8,71.1,70.7,68.3,61.5,95,80,53,30.25,30.15,25,8,25,0.01
2013-9-13,77.4,71.8,67.3,69.4,51.6,48.0,88,50,37,30.27,30.13,25,11,25,0.00
2013-9-14,84.0,72.8,63.3,62.6,56.3,49.3,69,57,46,30.17,30.01,22,8,23,0.00
2013-9-15,92.7,76.6,67.1,68.4,63.1,59.9,92,66,36,30.18,30.00,31,7,33,0.16
2013-9-16,74.5,68.3,64.9,69.1,65.8,62.8,96,92,82,30.29,30.17,24,8,25,0.03
2013-9-17,83.5,72.9,65.7,69.3,67.3,65.1,98,84,59,30.26,30.02,23,7,23,0.05
2013-9-18,91.9,80.1,70.2,69.1,66.3,62.4,88,65,38,30.05,29.88,35,8,35,0.00
2013-9-19,91.2,76.2,65.1,67.8,66.1,63.1,98,74,43,30.08,29.84,46,9,46,0.98
2013-9-20,74.1,66.0,60.1,66.0,53.3,46.9,98,66,39,30.22,30.06,25,8,25,0.00
2013-9-21,81.1,68.4,55.0,56.7,53.7,51.1,91,62,38,30.17,30.02,16,2,16,0.00
2013-9-22,78.3,67.5,57.0,56.5,51.8,46.8,86,60,34,30.08,29.92,21,6,21,0.00
2013-9-23,79.5,68.9,57.9,55.6,52.3,48.9,77,57,40,29.96,29.83,28,9,29,0.00
2013-9-24,77.0,68.6,60.6,56.8,53.9,50.5,76,60,46,30.03,29.91,23,9,31,0.00
2013-9-25,82.2,69.2,55.6,59.5,56.2,52.9,91,66,40,30.06,29.86,23,5,24,0.00
2013-9-26,91.4,77.8,66.2,61.0,58.0,54.7,71,53,32,29.91,29.82,30,10,33,0.00
2013-9-27,87.3,77.7,67.8,64.6,60.2,57.9,72,56,41,29.98,29.85,27,10,29,0.00
2013-9-28,77.4,65.2,54.9,67.3,52.1,41.4,93,65,35,30.24,29.84,29,8,30,0.48
2013-9-29,75.2,62.2,49.1,51.1,46.1,39.6,87,59,31,30.26,30.06,13,2,13,0.00
2013-9-30,79.9,66.5,53.1,54.3,51.4,48.2,86,61,36,30.07,29.91,20,5,20,0.00
2013-10-1,83.8,71.9,59.9,64.2,58.6,51.8,75,64,48,30.04,29.95,21,6,22,0.00
2013-10-2,83.7,74.2,66.7,71.1,67.2,62.6,97,80,61,30.06,29.91,23,7,23,0.00
2013-10-3,87.6,77.8,71.1,70.0,67.8,66.4,89,73,52,29.94,29.75,29,10,30,0.00
2013-10-4,87.6,74.7,56.7,69.4,63.5,35.1,97,70,44,30.10,29.77,37,10,39,0.29
2013-10-5,63.3,53.8,47.5,37.2,33.7,29.7,59,47,32,30.27,30.09,34,10,35,0.00
2013-10-6,68.9,56.3,46.0,40.8,32.3,22.6,57,42,18,30.22,30.14,28,9,28,0.00
2013-10-7,75.0,59.5,45.0,42.8,37.4,32.2,70,46,23,30.36,30.21,13,3,13,0.00
2013-10-8,76.5,63.2,50.9,50.5,45.2,40.6,75,54,32,30.22,30.08,25,8,28,0.00
2013-10-9,80.2,66.1,54.5,55.9,51.5,48.4,80,61,36,30.16,30.06,24,9,24,0.00
2013-10-10,80.2,68.8,57.9,60.4,56.8,53.1,85,67,49,30.11,29.89,28,9,29,0.00
2013-10-11,81.7,70.5,62.8,62.1,50.4,30.4,83,55,17,30.02,29.81,30,10,31,0.00
2013-10-12,71.2,61.7,53.2,46.2,40.0,34.3,64,46,26,30.38,30.02,30,10,30,0.00
2013-10-13,69.6,60.5,48.0,50.7,43.0,37.4,71,53,38,30.47,30.33,28,11,33,0.00
2013-10-14,63.9,61.4,57.0,63.0,55.8,46.0,98,83,55,30.33,29.95,28,10,28,0.45
2013-10-15,59.5,52.4,45.5,56.5,41.4,37.2,98,68,45,30.32,30.04,27,9,27,0.00
2013-10-16,54.3,46.9,39.7,43.2,38.0,35.6,92,72,52,30.35,30.22,17,4,17,0.00
2013-10-17,66.7,52.1,40.5,45.1,39.5,28.6,96,68,26,30.24,30.11,21,5,22,0.00
2013-10-18,49.5,39.5,33.6,39.6,35.3,32.4,97,86,68,30.37,30.21,21,7,25,0.27
2013-10-19,65.7,47.8,32.5,41.9,36.2,31.3,96,69,36,30.35,30.11,25,5,25,0.27
2013-10-20,70.2,55.8,40.5,47.7,41.8,36.1,85,62,40,30.11,29.95,24,5,24,0.00
2013-10-21,61.2,52.1,45.1,43.9,37.8,31.5,77,59,40,30.31,30.11,20,6,22,0.00
2013-10-22,69.3,56.7,45.9,44.4,40.7,38.1,77,57,36,30.27,30.15,29,7,31,0.00
2013-10-23,66.6,52.7,41.4,45.0,40.0,36.0,85,64,40,30.33,30.17,19,4,20,0.00
2013-10-24,53.1,46.9,39.9,42.3,33.1,27.7,83,60,39,30.61,30.29,26,9,26,0.00
2013-10-25,59.2,47.0,37.0,39.4,31.6,25.5,75,57,30,30.64,30.33,20,5,20,0.00
2013-10-26,64.8,53.4,45.3,50.7,38.1,23.9,85,61,22,30.35,30.27,24,5,24,0.00
2013-10-27,66.2,49.8,34.5,37.0,32.5,28.9,86,55,25,30.35,30.10,18,3,18,0.00
2013-10-28,65.7,56.7,46.6,57.4,51.0,33.3,97,82,54,30.23,30.12,25,8,25,0.00
2013-10-29,70.3,62.8,58.3,67.8,60.8,55.0,98,93,82,30.14,30.02,33,6,33,1.00
2013-10-30,71.6,60.1,51.1,67.6,58.4,49.1,98,94,81,30.10,29.83,32,6,32,0.20
2013-10-31,64.0,53.1,46.8,49.8,45.1,37.8,97,77,40,29.91,29.72,21,8,31,0.71
2013-11-1,61.3,52.8,44.1,42.4,38.5,35.6,78,59,39,30.28,29.90,29,6,29,0.00
2013-11-2,58.5,49.1,39.9,37.2,32.4,28.2,74,54,32,30.47,30.28,21,6,21,0.00
2013-11-3,62.8,51.9,43.5,42.1,36.1,31.1,68,55,40,30.32,29.98,39,11,39,0.00
2013-11-4,61.9,55.5,49.1,52.7,44.9,41.0,85,69,50,30.21,29.96,29,6,29,0.00
2013-11-5,61.0,54.8,39.9,59.9,52.9,37.2,97,93,85,30.23,29.98,36,9,36,0.28
2013-11-6,47.7,40.3,35.8,37.0,34.5,31.6,90,80,60,30.55,30.23,33,7,33,0.00
2013-11-7,62.2,47.2,35.4,38.7,35.1,32.7,91,66,35,30.65,30.47,12,2,12,0.00
2013-11-8,65.3,53.0,42.3,37.4,35.5,30.7,77,54,28,30.47,30.03,45,10,45,0.00
2013-11-9,64.2,53.0,42.3,43.2,39.7,36.1,81,62,40,30.44,30.15,19,5,20,0.00
2013-11-10,62.1,53.0,44.1,49.5,43.1,34.7,87,70,49,30.54,30.39,26,6,26,0.00
2013-11-11,57.0,47.7,28.9,52.2,43.0,18.3,91,84,64,30.82,30.32,32,8,32,0.00
2013-11-12,36.1,28.2,21.0,19.4,13.4,7.7,75,55,33,31.10,30.82,29,7,30,0.00
2013-11-13,48.9,35.9,23.7,26.1,19.5,15.3,72,53,38,30.92,30.39,26,7,26,0.00
2013-11-14,55.6,44.0,35.6,32.5,28.6,21.0,70,55,38,30.39,30.12,28,8,28,0.00
2013-11-15,60.6,49.0,37.8,48.7,39.8,31.1,85,71,50,30.14,29.82,24,6,24,0.00
2013-11-16,75.7,64.0,53.4,56.5,53.4,48.4,89,70,41,29.83,29.51,35,12,38,0.00
2013-11-17,65.5,57.5,48.0,48.6,28.8,8.6,65,37,12,30.25,29.52,43,13,43,0.00
2013-11-18,61.0,48.7,35.8,30.0,23.8,15.4,72,41,18,30.47,30.22,22,3,28,0.00
2013-11-19,59.7,51.8,45.5,35.2,29.1,26.1,57,42,32,30.39,30.05,32,11,33,0.00
2013-11-20,59.7,54.5,50.5,49.1,39.7,27.7,73,58,41,30.06,29.93,29,8,29,0.00
2013-11-21,54.0,37.4,24.6,51.8,34.3,19.4,95,89,72,30.71,30.04,33,14,35,0.28
2013-11-22,28.8,25.3,22.3,19.8,17.0,12.7,83,71,51,30.91,30.71,34,13,34,0.00
2013-11-23,32.9,28.9,20.8,18.5,14.4,9.0,65,54,47,31.00,30.86,27,11,27,0.00
2013-11-24,27.1,22.8,18.3,14.9,10.8,6.8,69,60,42,30.96,30.56,19,6,19,0.00
2013-11-25,36.0,30.3,26.6,27.3,22.3,14.0,84,72,60,30.56,30.42,14,4,14,0.00
2013-11-26,37.9,31.2,23.5,25.5,19.6,9.7,85,64,38,30.68,30.44,31,9,31,0.00
2013-11-27,36.5,26.8,17.1,20.3,14.2,9.3,73,59,44,30.69,30.42,18,4,18,0.00
2013-11-28,47.7,35.8,26.1,27.9,24.1,20.3,83,63,45,30.65,30.40,18,6,18,0.00
2013-11-29,53.8,40.2,27.7,32.0,26.8,21.4,81,60,41,30.65,30.37,23,7,25,0.00
2013-11-30,58.3,44.2,32.7,37.2,34.0,30.4,91,69,42,30.38,30.26,16,2,20,0.00
2013-12-1,61.9,44.6,32.5,40.8,36.0,29.8,93,74,41,30.30,30.05,9,1,9,0.00
2013-12-2,55.8,40.7,30.7,43.0,36.9,29.7,97,87,59,30.05,29.78,13,3,13,0.00
2013-12-3,61.0,44.2,33.6,47.3,40.6,32.7,98,89,55,29.79,29.64,15,3,15,0.00
2013-12-4,44.6,29.9,21.7,43.7,25.2,9.3,98,83,54,30.33,29.69,35,11,35,0.01
2013-12-5,21.7,17.2,14.7,10.9,5.1,1.9,77,59,51,30.66,30.33,33,12,35,0.00
2013-12-6,19.4,14.6,9.7,8.8,0.2,-4.2,76,53,38,30.92,30.61,29,13,30,0.00
2013-12-7,21.4,14.1,5.0,7.2,0.6,-3.5,72,55,40,30.96,30.56,22,10,22,0.00
2013-12-8,22.8,20.5,17.4,20.1,16.1,7.0,92,84,58,30.56,30.20,20,7,20,0.00
2013-12-9,17.4,13.9,11.7,12.6,5.7,1.9,87,70,58,30.68,30.47,18,6,18,0.00
2013-12-10,41.2,23.8,10.2,21.9,11.1,2.3,75,60,33,30.66,30.39,19,5,20,0.00
2013-12-11,29.8,25.2,19.6,21.6,11.8,2.5,82,58,34,30.87,30.47,30,7,30,0.00
2013-12-12,45.3,29.4,16.9,25.3,16.5,3.6,78,59,38,30.84,30.35,24,8,24,0.00
2013-12-13,44.4,38.7,31.5,38.8,33.7,25.3,91,82,75,30.35,29.95,22,7,24,0.00
2013-12-14,37.8,29.7,23.2,32.9,22.1,17.6,86,74,53,30.47,30.11,32,9,32,0.00
2013-12-15,60.4,39.3,22.5,29.5,23.2,19.4,88,58,24,30.46,30.25,24,5,24,0.00
2013-12-16,63.1,45.0,30.9,27.9,25.0,23.0,72,48,24,30.32,30.21,17,2,17,0.00
2013-12-17,54.3,41.6,30.0,31.3,24.8,20.7,84,54,27,30.53,30.31,20,4,23,0.00
2013-12-18,65.5,47.9,32.4,37.9,31.4,21.6,77,55,32,30.42,29.95,35,8,35,0.00
2013-12-19,60.4,52.4,35.4,50.0,45.1,28.8,89,76,62,29.95,29.73,27,8,27,0.00
2013-12-20,35.2,20.9,16.3,28.8,16.0,12.0,91,81,73,30.20,29.87,35,10,35,0.00
2013-12-21,26.8,23.6,21.9,25.0,20.0,14.5,95,86,74,30.11,29.82,24,8,24,0.00
2013-12-22,24.4,20.4,13.1,21.4,16.9,11.3,93,86,74,30.64,30.06,20,5,20,0.00
2013-12-23,17.1,14.5,10.8,13.5,10.7,8.6,93,85,77,30.90,30.64,21,4,21,0.00
2013-12-24,30.9,22.0,15.1,29.5,20.2,12.9,96,93,86,30.84,30.41,22,7,22,0.00
2013-12-25,40.6,31.9,25.5,34.3,27.7,23.5,95,85,64,30.66,30.53,16,2,17,0.17
2013-12-26,45.0,32.9,23.2,33.1,27.0,20.7,92,80,62,30.60,30.44,22,3,22,0.01
2013-12-27,48.7,36.4,24.1,34.3,28.9,22.1,93,76,49,30.59,30.43,12,2,12,0.00
2013-12-28,54.0,40.9,31.3,37.6,32.5,26.4,87,73,52,30.43,30.05,19,5,19,0.00
2013-12-29,41.4,20.1,13.3,35.4,9.0,-0.6,85,62,45,30.59,30.15,40,13,40,0.00
2013-12-30,35.2,22.4,12.6,20.7,10.1,0.0,75,59,46,30.60,30.48,18,4,18,0.00
2013-12-31,51.8,37.6,25.2,30.0,24.9,19.6,82,62,38,30.59,30.25,31,8,32,0.00
2014-1-1,36.7,25.8,12.2,28.0,19.6,7.0,87,77,68,30.62,30.14,33,10,33,0.00
2014-1-2,31.5,18.8,7.2,21.9,12.2,2.7,84,76,64,30.75,30.61,24,5,24,0.00